Location: Moscow
(55.7500°N, 37.5830°E)
Time: 17:45:43
(UTC+03:00)

Tiros 1 despin weight - Pass Details

Date: 30 November 2021
Orbit: 592 x 641 km, 48.2° (Epoch: 23 January)

Event Time Altitude Azimuth Distance (km) Brightness Sun altitude
Rises 19:05:03 0° 264° (W) 2,826 ? -24.3°
Reaches altitude 10° 19:07:37 10° 251° (WSW) 1,925 ? -24.7°
Maximum altitude 19:11:14 25° 196° (SSW) 1,208 ? -25.2°
Enters shadow 19:11:43 25° 185° (S) 1,225 ? -25.3°
